| time (UTC) | temp C | wind direction | speed KPH | gust KPH | rain 1hr cm | rain 24hr cm | rain mn cm | humidity % | barometer mb |
| 20260505040203 | 9 | 281 | 0.0 | 0.0 | 0.00 | 0.00 | 0.00 | 97 | 1010.9 |
| 20260505035700 | 9 | 281 | 0.0 | 0.0 | 0.00 | 0.00 | 0.00 | 96 | 1010.6 |
| 20260505035156 | 9 | 281 | 0.0 | 0.0 | 0.00 | 0.00 | 0.00 | 96 | 1010.8 |
| 20260505034652 | 10 | 281 | 0.0 | 0.0 | 0.00 | 0.00 | 0.00 | 96 | 1010.6 |
| 20260505034150 | 10 | 281 | 0.0 | 0.0 | 0.00 | 0.00 | 0.00 | 96 | 1010.8 |
| 20260505033646 | 10 | 281 | 0.0 | 0.0 | 0.00 | 0.00 | 0.00 | 96 | 1010.8 |
| 20260505033145 | 10 | 281 | 0.0 | 0.0 | 0.00 | 0.00 | 0.00 | 96 | 1010.7 |
| 20260505032642 | 10 | 281 | 0.0 | 0.0 | 0.00 | 0.00 | 0.00 | 96 | 1010.8 |
| 20260505032138 | 10 | 281 | 0.0 | 0.0 | 0.00 | 0.00 | 0.00 | 96 | 1010.7 |
| 20260505031636 | 10 | 280 | 0.0 | 0.0 | 0.00 | 0.00 | 0.00 | 96 | 1010.7 |
| 20260505031132 | 10 | 280 | 0.0 | 0.0 | 0.00 | 0.00 | 0.00 | 95 | 1010.9 |
| 20260505030629 | 10 | 280 | 0.0 | 0.0 | 0.00 | 0.00 | 0.00 | 95 | 1010.8 |
| 20260505030125 | 10 | 280 | 0.0 | 0.0 | 0.00 | 0.00 | 0.00 | 95 | 1010.7 |
| 20260505025621 | 10 | 274 | 0.0 | 1.6 | 0.00 | 0.00 | 0.00 | 95 | 1010.8 |
| 20260505025120 | 10 | 273 | 0.0 | 0.0 | 0.00 | 0.00 | 0.00 | 95 | 1010.8 |
| 20260505024617 | 10 | 266 | 0.0 | 0.0 | 0.00 | 0.00 | 0.00 | 94 | 1010.7 |
| 20260505024114 | 10 | 266 | 0.0 | 0.0 | 0.00 | 0.00 | 0.00 | 94 | 1010.8 |
| 20260505023611 | 10 | 266 | 0.0 | 0.0 | 0.00 | 0.00 | 0.00 | 94 | 1010.8 |
| 20260505023109 | 10 | 266 | 0.0 | 0.0 | 0.00 | 0.00 | 0.00 | 94 | 1010.7 |
| 20260505022606 | 11 | 266 | 0.0 | 0.0 | 0.00 | 0.00 | 0.00 | 94 | 1010.8 |
| 20260505022102 | 11 | 255 | 0.0 | 0.0 | 0.00 | 0.00 | 0.00 | 93 | 1010.6 |
| 20260505021559 | 11 | 255 | 0.0 | 0.0 | 0.00 | 0.00 | 0.00 | 93 | 1010.6 |
| 20260505021056 | 11 | 255 | 0.0 | 0.0 | 0.00 | 0.00 | 0.00 | 93 | 1010.7 |
| 20260505020556 | 11 | 254 | 0.0 | 0.0 | 0.00 | 0.00 | 0.00 | 92 | 1010.7 |
| 20260505020053 | 11 | 263 | 0.0 | 0.0 | 0.00 | 0.00 | 0.00 | 92 | 1010.7 |
| 20260505015550 | 11 | 263 | 0.0 | 0.0 | 0.00 | 0.00 | 0.00 | 92 | 1010.7 |
| 20260505015047 | 11 | 263 | 0.0 | 0.0 | 0.00 | 0.00 | 0.00 | 92 | 1010.8 |
| 20260505014543 | 11 | 263 | 0.0 | 0.0 | 0.00 | 0.00 | 0.00 | 91 | 1010.7 |
| 20260505014041 | 11 | 263 | 0.0 | 0.0 | 0.00 | 0.00 | 0.00 | 91 | 1010.7 |
| 20260505013538 | 12 | 263 | 0.0 | 0.0 | 0.00 | 0.00 | 0.00 | 91 | 1010.6 |
| 20260505013035 | 12 | 262 | 0.0 | 0.0 | 0.00 | 0.00 | 0.00 | 90 | 1010.7 |
| 20260505012533 | 12 | 262 | 0.0 | 0.0 | 0.00 | 0.00 | 0.00 | 89 | 1010.8 |
| 20260505012030 | 12 | 260 | 0.0 | 0.0 | 0.00 | 0.00 | 0.00 | 88 | 1010.7 |
| 20260505011525 | 12 | 260 | 0.0 | 1.6 | 0.00 | 0.00 | 0.00 | 88 | 1010.6 |
| 20260505011023 | 12 | 220 | 0.0 | 0.0 | 0.00 | 0.00 | 0.00 | 87 | 1010.6 |
| 20260505010518 | 13 | 220 | 0.0 | 0.0 | 0.00 | 0.00 | 0.00 | 87 | 1010.8 |
| 20260505010015 | 13 | 220 | 0.0 | 0.0 | 0.00 | 0.00 | 0.00 | 86 | 1010.6 |
| 20260505005511 | 13 | 220 | 0.0 | 0.0 | 0.00 | 0.00 | 0.00 | 86 | 1010.7 |
| 20260505005009 | 13 | 220 | 0.0 | 0.0 | 0.00 | 0.00 | 0.00 | 85 | 1010.7 |
| 20260505004506 | 13 | 220 | 0.0 | 0.0 | 0.00 | 0.00 | 0.00 | 83 | 1010.9 |
| 20260505004002 | 14 | 220 | 0.0 | 0.0 | 0.00 | 0.00 | 0.00 | 83 | 1010.6 |
| 20260505003459 | 15 | 221 | 0.0 | 0.0 | 0.00 | 0.00 | 0.00 | 81 | 1010.6 |
| 20260505002956 | 15 | 242 | 0.0 | 0.0 | 0.00 | 0.00 | 0.00 | 80 | 1010.8 |
| 20260505002452 | 15 | 252 | 0.0 | 1.6 | 0.00 | 0.00 | 0.00 | 79 | 1010.8 |
| 20260505001950 | 16 | 200 | 0.0 | 0.0 | 0.00 | 0.00 | 0.00 | 78 | 1010.9 |
| 20260505001448 | 16 | 204 | 0.0 | 0.0 | 0.00 | 0.00 | 0.00 | 76 | 1010.7 |
| 20260505000945 | 16 | 221 | 0.0 | 0.0 | 0.00 | 0.00 | 0.00 | 76 | 1010.7 |
| 20260505000443 | 17 | 199 | 0.0 | 0.0 | 0.00 | 0.00 | 0.00 | 71 | 1010.8 |
| 20260504235939 | 17 | 272 | 0.0 | 0.0 | 0.00 | 0.00 | 0.00 | 70 | 1010.7 |
| 20260504235437 | 18 | 308 | 0.0 | 0.0 | 0.00 | 0.00 | 0.00 | 64 | 1010.7 |
| 20260504234932 | 19 | 301 | 0.0 | 1.6 | 0.00 | 0.00 | 0.00 | 62 | 1010.7 |
| 20260504234430 | 19 | 344 | 0.0 | 0.0 | 0.00 | 0.00 | 0.00 | 59 | 1010.8 |
| 20260504233926 | 20 | 358 | 0.0 | 1.6 | 0.00 | 0.00 | 0.00 | 55 | 1010.8 |
| 20260504233422 | 20 | 277 | 0.0 | 0.0 | 0.00 | 0.00 | 0.00 | 57 | 1011.0 |
| 20260504232919 | 20 | 288 | 0.0 | 0.0 | 0.00 | 0.00 | 0.00 | 55 | 1010.9 |
| 20260504232417 | 20 | 53 | 0.0 | 1.6 | 0.00 | 0.00 | 0.00 | 56 | 1010.8 |
| 20260504231914 | 20 | 276 | 1.6 | 4.8 | 0.00 | 0.00 | 0.00 | 51 | 1010.8 |
| 20260504231409 | 20 | 89 | 3.2 | 3.2 | 0.00 | 0.00 | 0.00 | 53 | 1010.6 |
| 20260504230906 | 21 | 352 | 3.2 | 4.8 | 0.00 | 0.00 | 0.00 | 51 | 1010.8 |
| 20260504230403 | 21 | 302 | 3.2 | 4.8 | 0.00 | 0.00 | 0.00 | 51 | 1010.7 |
| 20260504225902 | 21 | 276 | 3.2 | 9.7 | 0.00 | 0.00 | 0.00 | 53 | 1010.8 |
| 20260504225358 | 21 | 359 | 1.6 | 4.8 | 0.00 | 0.00 | 0.00 | 52 | 1010.7 |
| 20260504224856 | 21 | 303 | 3.2 | 4.8 | 0.00 | 0.00 | 0.00 | 49 | 1010.8 |
| 20260504224352 | 21 | 289 | 1.6 | 3.2 | 0.00 | 0.00 | 0.00 | 51 | 1010.7 |
| 20260504223849 | 21 | 9 | 1.6 | 4.8 | 0.00 | 0.00 | 0.00 | 48 | 1010.6 |
| 20260504223345 | 21 | 254 | 3.2 | 6.4 | 0.00 | 0.00 | 0.00 | 48 | 1010.5 |
| 20260504222841 | 21 | 307 | 3.2 | 3.2 | 0.00 | 0.00 | 0.00 | 51 | 1010.5 |
| 20260504222338 | 21 | 244 | 4.8 | 9.7 | 0.00 | 0.00 | 0.00 | 49 | 1010.8 |
| 20260504221837 | 21 | 245 | 8.0 | 12.9 | 0.00 | 0.00 | 0.00 | 49 | 1010.7 |
| 20260504221333 | 22 | 281 | 3.2 | 9.7 | 0.00 | 0.00 | 0.00 | 49 | 1010.6 |
| 20260504220830 | 22 | 56 | 4.8 | 11.3 | 0.00 | 0.00 | 0.00 | 46 | 1010.5 |
| 20260504220327 | 22 | 293 | 0.0 | 9.7 | 0.00 | 0.00 | 0.00 | 47 | 1010.6 |
| 20260504215824 | 21 | 290 | 9.7 | 11.3 | 0.00 | 0.00 | 0.00 | 48 | 1010.8 |
| 20260504215320 | 21 | 351 | 3.2 | 4.8 | 0.00 | 0.00 | 0.00 | 49 | 1010.8 |
| 20260504214817 | 21 | 340 | 6.4 | 9.7 | 0.00 | 0.00 | 0.00 | 49 | 1010.9 |
| 20260504214314 | 22 | 68 | 4.8 | 14.5 | 0.00 | 0.00 | 0.00 | 48 | 1010.7 |
| 20260504213810 | 23 | 255 | 1.6 | 4.8 | 0.00 | 0.00 | 0.00 | 50 | 1010.7 |
| 20260504213306 | 23 | 4 | 4.8 | 6.4 | 0.00 | 0.00 | 0.00 | 46 | 1010.4 |
| 20260504212804 | 22 | 261 | 3.2 | 6.4 | 0.00 | 0.00 | 0.00 | 46 | 1010.5 |
| 20260504212300 | 23 | 107 | 1.6 | 11.3 | 0.00 | 0.00 | 0.00 | 47 | 1010.3 |
| 20260504211758 | 22 | 305 | 1.6 | 3.2 | 0.00 | 0.00 | 0.00 | 48 | 1010.4 |
| 20260504211253 | 21 | 333 | 1.6 | 12.9 | 0.00 | 0.00 | 0.00 | 51 | 1010.3 |
| 20260504210751 | 21 | 322 | 8.0 | 9.7 | 0.00 | 0.00 | 0.00 | 48 | 1010.6 |
| 20260504210248 | 22 | 22 | 3.2 | 6.4 | 0.00 | 0.00 | 0.00 | 48 | 1010.7 |
| 20260504205745 | 22 | 2 | 0.0 | 3.2 | 0.00 | 0.00 | 0.00 | 50 | 1010.6 |
| 20260504205243 | 22 | 308 | 3.2 | 4.8 | 0.00 | 0.00 | 0.00 | 49 | 1010.5 |
| 20260504204741 | 21 | 81 | 1.6 | 9.7 | 0.00 | 0.00 | 0.00 | 47 | 1010.7 |
| 20260504204239 | 21 | 275 | 3.2 | 6.4 | 0.00 | 0.00 | 0.00 | 48 | 1010.7 |
| 20260504203738 | 21 | 331 | 1.6 | 9.7 | 0.00 | 0.00 | 0.00 | 49 | 1010.8 |
| 20260504203235 | 21 | 257 | 3.2 | 6.4 | 0.00 | 0.00 | 0.00 | 50 | 1010.8 |
| 20260504202735 | 21 | 344 | 9.7 | 12.9 | 0.00 | 0.00 | 0.00 | 49 | 1010.7 |
| 20260504202232 | 21 | 43 | 3.2 | 9.7 | 0.00 | 0.00 | 0.00 | 48 | 1010.9 |
| 20260504201729 | 21 | 68 | 1.6 | 4.8 | 0.00 | 0.00 | 0.00 | 52 | 1010.7 |
| 20260504201226 | 21 | 286 | 3.2 | 4.8 | 0.00 | 0.00 | 0.00 | 48 | 1010.8 |
| 20260504200724 | 21 | 261 | 1.6 | 4.8 | 0.00 | 0.00 | 0.00 | 49 | 1010.9 |
| 20260504200220 | 22 | 336 | 4.8 | 9.7 | 0.00 | 0.00 | 0.00 | 48 | 1010.8 |
| 20260504195717 | 21 | 322 | 3.2 | 9.7 | 0.00 | 0.00 | 0.00 | 49 | 1010.8 |
| 20260504195212 | 21 | 257 | 3.2 | 12.9 | 0.00 | 0.00 | 0.00 | 48 | 1011.1 |
| 20260504194710 | 21 | 271 | 8.0 | 12.9 | 0.00 | 0.00 | 0.00 | 46 | 1011.1 |
| 20260504194206 | 21 | 240 | 3.2 | 6.4 | 0.00 | 0.00 | 0.00 | 49 | 1011.0 |
| 20260504193702 | 21 | 15 | 3.2 | 12.9 | 0.00 | 0.00 | 0.00 | 47 | 1011.1 |
| 20260504193200 | 22 | 346 | 3.2 | 6.4 | 0.00 | 0.00 | 0.00 | 47 | 1011.3 |
| 20260504192658 | 22 | 81 | 4.8 | 11.3 | 0.00 | 0.00 | 0.00 | 48 | 1011.1 |
| 20260504192156 | 23 | 354 | 4.8 | 11.3 | 0.00 | 0.00 | 0.00 | 44 | 1011.0 |
| 20260504191654 | 22 | 328 | 9.7 | 12.9 | 0.00 | 0.00 | 0.00 | 46 | 1010.9 |
| 20260504191150 | 22 | 349 | 0.0 | 14.5 | 0.00 | 0.00 | 0.00 | 47 | 1010.7 |
| 20260504190646 | 22 | 258 | 1.6 | 16.1 | 0.00 | 0.00 | 0.00 | 48 | 1010.9 |
| 20260504190143 | 22 | 106 | 4.8 | 22.5 | 0.00 | 0.00 | 0.00 | 45 | 1010.9 |
| 20260504185639 | 22 | 278 | 9.7 | 12.9 | 0.00 | 0.00 | 0.00 | 46 | 1010.8 |
| 20260504185136 | 22 | 326 | 1.6 | 11.3 | 0.00 | 0.00 | 0.00 | 47 | 1011.1 |
| 20260504184632 | 22 | 272 | 3.2 | 9.7 | 0.00 | 0.00 | 0.00 | 47 | 1011.2 |
| 20260504184127 | 22 | 210 | 6.4 | 11.3 | 0.00 | 0.00 | 0.00 | 49 | 1011.1 |
| 20260504183624 | 22 | 353 | 3.2 | 12.9 | 0.00 | 0.00 | 0.00 | 48 | 1011.3 |
| 20260504183122 | 22 | 284 | 6.4 | 12.9 | 0.00 | 0.00 | 0.00 | 47 | 1011.7 |
| 20260504182619 | 21 | 312 | 6.4 | 20.9 | 0.00 | 0.00 | 0.00 | 48 | 1011.4 |
| 20260504182117 | 22 | 110 | 3.2 | 16.1 | 0.00 | 0.00 | 0.00 | 49 | 1011.4 |
| 20260504181614 | 21 | 308 | 3.2 | 6.4 | 0.00 | 0.00 | 0.00 | 52 | 1011.7 |
| 20260504181111 | 21 | 257 | 3.2 | 17.7 | 0.00 | 0.00 | 0.00 | 48 | 1011.7 |
| 20260504180610 | 21 | 282 | 3.2 | 12.9 | 0.00 | 0.00 | 0.00 | 50 | 1011.7 |
| 20260504180109 | 21 | 37 | 6.4 | 11.3 | 0.00 | 0.00 | 0.00 | 48 | 1011.7 |
| 20260504175606 | 21 | 73 | 14.5 | 22.5 | 0.00 | 0.00 | 0.00 | 49 | 1012.0 |
| 20260504175102 | 20 | 305 | 3.2 | 12.9 | 0.00 | 0.00 | 0.00 | 50 | 1011.9 |
| 20260504174601 | 20 | 333 | 8.0 | 17.7 | 0.00 | 0.00 | 0.00 | 51 | 1012.1 |
| 20260504174057 | 20 | 305 | 6.4 | 12.9 | 0.00 | 0.00 | 0.00 | 52 | 1012.2 |
| 20260504173554 | 20 | 303 | 6.4 | 25.7 | 0.00 | 0.00 | 0.00 | 51 | 1012.3 |
| 20260504173052 | 20 | 340 | 6.4 | 14.5 | 0.00 | 0.00 | 0.00 | 52 | 1012.5 |
| 20260504172547 | 20 | 13 | 3.2 | 11.3 | 0.00 | 0.00 | 0.00 | 51 | 1012.3 |
| 20260504172044 | 19 | 197 | 1.6 | 9.7 | 0.00 | 0.00 | 0.00 | 54 | 1012.6 |
| 20260504171541 | 19 | 13 | 8.0 | 9.7 | 0.00 | 0.00 | 0.00 | 53 | 1012.8 |
| 20260504171038 | 19 | 122 | 1.6 | 17.7 | 0.00 | 0.00 | 0.00 | 52 | 1012.9 |
| 20260504170533 | 19 | 263 | 4.8 | 9.7 | 0.00 | 0.00 | 0.00 | 54 | 1012.9 |
| 20260504150918 | 18 | 158 | 1.6 | 14.5 | 0.00 | 0.00 | 0.00 | 51 | 1013.9 |
| 20260504150414 | 18 | 333 | 1.6 | 14.5 | 0.00 | 0.00 | 0.00 | 53 | 1014.2 |
| 20260504140841 | 16 | 277 | 0.0 | 4.8 | 0.00 | 0.00 | 0.00 | 53 | 1014.1 |
| 20260504140336 | 16 | 358 | 1.6 | 11.3 | 0.00 | 0.00 | 0.00 | 51 | 1014.2 |
| 20260504130806 | 15 | 305 | 9.7 | 16.1 | 0.00 | 0.00 | 0.00 | 52 | 1014.3 |
| 20260504130302 | 14 | 24 | 1.6 | 11.3 | 0.00 | 0.00 | 0.00 | 53 | 1014.1 |
| 20260504120225 | 9 | 156 | 0.0 | 1.6 | 0.00 | 0.00 | 0.00 | 83 | 1014.3 |
| 20260504110652 | 7 | 12 | 0.0 | 0.0 | 0.00 | 0.00 | 0.00 | 93 | 1014.7 |
| 20260504110149 | 7 | 10 | 0.0 | 0.0 | 0.00 | 0.00 | 0.00 | 92 | 1014.7 |
| 20260504100615 | 7 | 351 | 0.0 | 0.0 | 0.00 | 0.00 | 0.00 | 91 | 1014.9 |
| 20260504100113 | 7 | 351 | 0.0 | 0.0 | 0.00 | 0.00 | 0.00 | 90 | 1014.9 |
| 20260504081506 | 7 | 355 | 0.0 | 1.6 | 0.00 | 0.00 | 0.00 | 86 | 1015.6 |
| 20260504081001 | 7 | 338 | 0.0 | 1.6 | 0.00 | 0.00 | 0.00 | 87 | 1015.4 |
| 20260504080458 | 7 | 338 | 0.0 | 1.6 | 0.00 | 0.00 | 0.00 | 87 | 1015.4 |
| 20260504050311 | 7 | 241 | 0.0 | 0.0 | 0.00 | 0.00 | 0.00 | 85 | 1016.3 |
| 20260504045808 | 7 | 241 | 0.0 | 0.0 | 0.00 | 0.00 | 0.00 | 86 | 1016.2 |
| 20260504045308 | 7 | 241 | 0.0 | 0.0 | 0.00 | 0.00 | 0.00 | 85 | 1016.1 |
| 20260504044806 | 7 | 241 | 0.0 | 0.0 | 0.00 | 0.00 | 0.00 | 85 | 1016.3 |
| 20260504044303 | 7 | 241 | 0.0 | 0.0 | 0.00 | 0.00 | 0.00 | 85 | 1016.3 |
| 20260504043800 | 7 | 241 | 0.0 | 0.0 | 0.00 | 0.00 | 0.00 | 85 | 1016.2 |
| 20260504043257 | 7 | 241 | 0.0 | 0.0 | 0.00 | 0.00 | 0.00 | 86 | 1016.2 |
| 20260504042755 | 7 | 241 | 0.0 | 0.0 | 0.00 | 0.00 | 0.00 | 85 | 1016.1 |
| 20260504042251 | 7 | 241 | 0.0 | 0.0 | 0.00 | 0.00 | 0.00 | 86 | 1016.2 |
| 20260504041747 | 7 | 241 | 0.0 | 0.0 | 0.00 | 0.00 | 0.00 | 87 | 1016.1 |
| 20260504041243 | 7 | 241 | 0.0 | 0.0 | 0.00 | 0.00 | 0.00 | 87 | 1016.1 |
| 20260504040739 | 7 | 241 | 0.0 | 0.0 | 0.00 | 0.00 | 0.00 | 86 | 1016.4 |